Regional Weather Roundup
Issued by NWS

Home | Current Version | Previous Version | Graphics & Text | Print | Product List | Glossary On
Versions: 1 2 3 4 5 6 7 8 9 10 11 12 13 14 15 16 17 18 19 20 21 22 23 24 25 26 27 28 29 30 31 32 33 34 35 36 37 38 39 40 41 42 43 44 45 46 47 48 49 50
831
ASUS45 KTFX 201410
RWRMT
MONTANA REGIONAL WEATHER ROUNDUP
NATIONAL WEATHER SERVICE GREAT FALLS MT
800 AM MDT SUN AUG 20 2017

NOTE: "FAIR" INDICATES FEW OR NO CLOUDS BELOW 12000 FEET WITH NO
SIGNIFICANT WEATHER AND/OR OBSTRUCTIONS TO VISIBILITY.

MTZ001>007-043-201500-
WEST OF THE DIVIDE

CITY           SKY/WX    TMP DP  RH WIND       PRES   REMARKS
KALISPELL      SUNNY     44  40  85 CALM      30.08R
MISSOULA       CLOUDY    49  40  71 CALM      30.14R HAZE
BUTTE          SUNNY     42  33  70 CALM      30.20R
MULLAN PASS    SUNNY     49  30  48 NW5       30.19R
ANACONDA         N/A     52  34  50 S3        30.17S
DEER LODGE       N/A     45  36  70 CALM      30.19R
EUREKA           N/A     45  32  61 MISG      30.09R
HAMILTON         N/A     52  37  58 S7        30.14S
LIBBY            N/A     43  36  75 CALM      30.09R
PLAINS           N/A     43  36  76 CALM      30.10R
RONAN            N/A     45  41  86 MISG      30.12R
$$

MTZ008-052>055-201500-
SOUTHWEST MONTANA

CITY           SKY/WX    TMP DP  RH WIND       PRES   REMARKS
BOZEMAN        SUNNY     52  40  63 SE8       30.13R
DILLON         SUNNY     47  35  63 SW8       30.16R
W YELLOWSTONE  CLOUDY    41  34  75 CALM      30.22R
ENNIS          SUNNY     46  37  71 CALM      30.21R
THREE FORKS      N/A     50  39  65 CALM      30.10R
TWIN BRIDGES     N/A     49  34  56 CALM      30.12R
$$

MTZ009-010-012-014-046-048-049-054-201500-
EAST SLOPES AND CENTRAL MONTANA

CITY           SKY/WX    TMP DP  RH WIND       PRES   REMARKS
CUT BANK       PTSUNNY   49  37  63 NW3       30.05R
GREAT FALLS    CLOUDY    58  38  47 SW12      30.06R
MALMSTROM AFB  CLOUDY    56  40  54 SW5       30.06S
HELENA         SUNNY     61  39  44 W6        30.13R
AUGUSTA          N/A     52  36  53 W6        30.08R
BOWMANS CRNR     N/A     49  36  60 S9        30.07S
CHOTEAU          N/A     54  37  54 SW5       30.07S
CONRAD           N/A     47  42  82 CALM      30.06R
FAIRFIELD        N/A     56  38  51 CALM      30.05S
POWER            N/A     54  38  54 SW5       30.05R
RAYNESFORD       N/A     50  38  62 CALM      30.08S
ULM              N/A     55  37  50 SE7       30.06S
$$

MTZ011-013-016-021-045-047-050-051-201500-
NORTH CENTRAL MONTANA

CITY           SKY/WX    TMP DP  RH WIND       PRES   REMARKS
HAVRE          PTSUNNY   52  33  48 CALM      30.02S
LEWISTOWN      SUNNY     53  38  56 S5        30.09R
N BAR RANCH      N/A     57  36  44 NW3       30.14S
CHINOOK          N/A     54  36  50 E10       30.03S
DENTON           N/A     56  38  51 S6        30.03S
GEYSER           N/A     57  37  47 W13G18    30.06S
GRASS RANGE      N/A     52  37  56 CALM      30.06S
JUDITH GAP       N/A     55  37  50 SW16      30.12S
WINIFRED         N/A     57  36  45 SE9       30.06S
$$

MTZ017>020-022>027-061-062-201500-
NORTHEAST MONTANA

CITY           SKY/WX    TMP DP  RH WIND       PRES   REMARKS
GLASGOW        CLOUDY    54  33  45 NE5       30.08R
JORDAN           N/A     57  33  40 CALM      30.08R
SIDNEY         CLOUDY    53  42  66 CALM      30.10R
WOLF POINT     MOSUNNY   52  35  52 CALM      30.09R
MALTA          PTSUNNY   52  39  62 E5        30.07S
PLENTYWOOD       N/A     52  37  58 CALM      30.09R
POPLAR           N/A     52  39  62 CALM      30.10R
SCOBEY           N/A     46  33  60 CALM      30.07R
$$

MTZ028>42-056>058-201500-
SOUTHCENTRAL AND SOUTHEAST MONTANA

CITY           SKY/WX    TMP DP  RH WIND       PRES   REMARKS
BAKER          CLOUDY    59  38  45 E9        30.09R
BILLINGS       MOSUNNY   58  37  45 NW9       30.07R
LIVINGSTON     SUNNY     51  40  65 NW6       30.13R
MILES CITY     CLOUDY    59  40  49 NE12      30.06R
BIG TIMBER     SUNNY     54  39  58 W5        30.14S
EKALAKA          N/A     59  36  42 SE10      30.07R
HARLOWTON        N/A     49  39  68 MISG      30.12R
LAUREL           N/A     58  35  42 W5        30.06S
$$

REGIONAL REPORTS...DAKOTAS

CITY           SKY/WX    TMP DP  RH WIND       PRES   REMARKS
WILLISTON      CLOUDY    53  42  66 CALM      30.09R
MINOT          SUNNY     59  43  55 SW6       30.04R
DICKINSON      CLOUDY    56  44  64 N6        30.07R
BEACH          PTSUNNY   54  45  71 CALM      30.12R
CROSBY           N/A     52  41  66 SW6       30.08R
TIOGA            N/A     52  45  76 CALM      30.09R
BISMARCK       PTSUNNY   62  48  60 NW3       30.05S
GRAND FORKS    CLOUDY    64  51  62 NW12      29.94R
FARGO          CLOUDY    62  52  69 NW9       29.96R
BUFFALO SD       N/A     59  44  57 S3        30.05R
RAPID CITY     SUNNY     65  49  56 NW7       30.09R
$$

REGIONAL REPORTS...WYOMING/IDAHO/WASHINGTON

CITY           SKY/WX    TMP DP  RH WIND       PRES   REMARKS
GILLETTE       SUNNY     61  47  59 CALM      30.10R
SHERIDAN       SUNNY     53  43  68 NW5       30.08R
BUFFALO WY     SUNNY     61  38  42 S5        30.11F
CODY           CLOUDY    55  42  61 CALM      30.13R
YELLOWSTONE LA   N/A     40  35  83 CALM      30.28R
IDAHO FALLS    MOSUNNY   58  40  51 S9        30.12R
SALMON         SUNNY     47  40  76 NW3       30.16R
BOISE          MOSUNNY   56  40  55 CALM      30.06R
SPOKANE        CLOUDY    57  38  48 S6        30.07R
$$

REGIONAL REPORTS...ALBERTA

CITY           SKY/WX    TMP DP  RH WIND       PRES   REMARKS
EDMONTON       CLOUDY    52  43  71 W7        29.96R
CALGARY        PTSUNNY   50  36  57 N8        30.02S
LETHBRIDGE     PTSUNNY   48  37  66 W8        30.01R
MEDICINE HAT   MOSUNNY   52  45  76 SW2       29.98S
$$

REGIONAL REPORTS...SASKATCHEWAN

CITY           SKY/WX    TMP DP  RH WIND       PRES   REMARKS
SWIFT CURRENT  CLOUDY    55  37  50 SW7       30.02S HAZE
REGINA         PTSUNNY   52  41  66 SW2       30.04R
SASKATOON      PTSUNNY   54  43  66 SW9       29.97R
$$




USA.gov is the U.S. government's official web portal to all federal, state and local government web resources and services.